Tracking 27079 objects as of 23-Mar-2023
HD Live streaming from Space Station
objects crossing your sky now

COSMOS 970 DEB

Track COSMOS 970 DEB now!
10-day predictions


NORAD ID: 15559
Int'l Code: 1977-121BM
Perigee: 933.3 km
Apogee: 1,118.6 km
Inclination: 65.6 °
Period: 105.5 minutes
Semi major axis: 7396 km
RCS: 0.0103 m2 (small)
Launch date: December 21, 1977
Source: Commonwealth of Independent States (former USSR) (CIS)
Launch site: TYURATAM MISSILE AND SPACE COMPLEX (TTMTR)

Note: This is SATELLITE DEBRIS
Your satellite tracking list
Your tracking list is empty




NASA's NSSDC Master Catalog

Two Line Element Set (TLE):
1 15559U 77121BM  23081.70741050  .00000299  00000-0  44704-3 0  9993
2 15559  65.5779 243.8476 0125287 186.1371 187.5027 13.64656690899352
Source of the keplerian elements: AFSPC